This demonstration page uses our WeatherBlox Daily Observations layout. Learn more.

Left ArrowRight Arrow

39.51506, -84.39828

Hourly Observations for May 23, 2016

Temp ( °F °C ) Dew Point ( °F °C ) Humidity (%) Winds ( mph kmh ) Pressure ( in mb ) Visibility ( mi km ) Precip ( " mm )
12:15 am 00:15 Clear 57 13.7 50 9.9 78 78 N N/A 30.03 1017 10 16.0934 N/A
12:35 am 00:35 Clear 55 12.5 48 8.8 78 78 N N/A 30.03 1017 10 16.0934 N/A
12:55 am 00:55 Clear 55 12.5 48 9 79 79 N N/A 30.03 1017 10 16.0934 N/A
1:15 am 01:15 Clear 55 12.5 48 8.8 78 78 N N/A 30.03 1017 10 16.0934 N/A
1:35 am 01:35 Clear 55 12.5 47 8.6 77 77 N N/A 30.03 1017 10 16.0934 N/A
1:55 am 01:55 Clear 54 12.1 47 8.6 79 79 N N/A 30.03 1017 10 16.0934 N/A
2:15 am 02:15 Clear 55 12.5 48 9 79 79 N N/A 30.03 1017 10 16.0934 N/A
2:35 am 02:35 Clear 52 11 45 7.4 79 79 N N/A 30.03 1017 10 16.0934 N/A
2:55 am 02:55 Clear 51 10.7 45 7.3 80 80 N N/A 30.03 1017 10 16.0934 N/A
3:15 am 03:15 Clear 50 9.8 43 6.3 79 79 N N/A 30.03 1017 10 16.0934 N/A
3:35 am 03:35 Clear 49 9.6 44 6.4 81 81 N N/A 30.03 1017 10 16.0934 N/A
3:55 am 03:55 Clear 49 9.6 44 6.4 81 81 N N/A 30.03 1017 10 16.0934 N/A
4:15 am 04:15 Clear 49 9.6 44 6.6 82 82 N N/A 30.03 1017 7 11.26538 N/A
4:35 am 04:35 Hazy 48 9 43 6.1 82 82 N N/A 30.03 1017 5 8.0467 N/A
4:55 am 04:55 Clear 47 8.5 42 5.8 83 83 N 3 6 30.03 1017 7 11.26538 N/A
5:15 am 05:15 Clear 47 8.2 42 5.5 83 83 NNE 3 6 30.03 1017 10 16.0934 N/A
5:35 am 05:35 Clear 49 9.4 44 6.6 83 83 N N/A 30.03 1017 10 16.0934 N/A
5:55 am 05:55 Clear 48 8.8 42 5.7 81 81 N N/A 30.06 1018 10 16.0934 N/A
6:15 am 06:15 Clear 44 6.5 39 3.7 83 83 N 3 6 30.06 1018 7 11.26538 N/A
6:35 am 06:35 Sunny 47 8.2 42 5.5 83 83 N N/A 30.06 1018 10 16.0934 N/A
6:55 am 06:55 Sunny 47 8.3 42 5.5 83 83 N N/A 30.09 1019 10 16.0934 N/A
7:15 am 07:15 Sunny 49 9.6 44 6.6 82 82 N N/A 30.09 1019 10 16.0934 N/A
7:35 am 07:35 Sunny 49 9.7 44 6.5 81 81 N N/A 30.09 1019 10 16.0934 N/A
7:55 am 07:55 Sunny 55 12.5 48 9.1 80 80 N N/A 30.09 1019 10 16.0934 N/A
8:15 am 08:15 Sunny 55 12.5 47 8.5 77 77 N N/A 30.09 1019 10 16.0934 N/A
8:35 am 08:35 Sunny 56 13.5 47 8.6 72 72 N N/A 30.12 1020 10 16.0934 N/A
8:55 am 08:55 Sunny 57 14 46 7.8 66 66 N N/A 30.12 1020 10 16.0934 N/A
9:15 am 09:15 Sunny 60 15.3 44 6.5 56 56 N N/A 30.12 1020 10 16.0934 N/A
9:35 am 09:35 Sunny 61 16 43 6.1 52 52 N N/A 30.12 1020 10 16.0934 N/A
9:55 am 09:55 Sunny 62 16.6 44 6.4 51 51 N N/A 30.09 1019 10 16.0934 N/A
10:15 am 10:15 Sunny 64 17.9 43 6 46 46 N N/A 30.09 1019 10 16.0934 N/A
10:35 am 10:35 Sunny 68 19.8 46 7.7 46 46 NE 3 6 30.09 1019 10 16.0934 N/A
10:55 am 10:55 Sunny 69 20.8 46 7.8 43 43 N N/A 30.06 1018 10 16.0934 N/A
11:15 am 11:15 Sunny 69 20.8 45 7.2 42 42 N N/A 30.06 1018 10 16.0934 N/A
11:35 am 11:35 Sunny 69 20.8 46 7.5 42 42 N N/A 30.06 1018 10 16.0934 N/A
11:55 am 11:55 Sunny 69 20.8 44 6.8 40 40 N N/A 30.06 1018 10 16.0934 N/A
12:15 pm 12:15 Sunny 71 21.9 45 7 38 38 N N/A 30.06 1018 10 16.0934 N/A
12:35 pm 12:35 Sunny 74 23.2 47 8.3 39 39 NE 3 6 30.06 1018 10 16.0934 N/A
12:55 pm 12:55 Sunny 74 23.6 46 7.6 36 36 NE 8 13 30.06 1018 10 16.0934 N/A
1:15 pm 13:15 Sunny 74 23.6 42 5.8 32 32 N N/A 30.03 1017 10 16.0934 N/A
1:35 pm 13:35 Sunny 74 23.6 44 6.8 34 34 ESE 6 9 30.03 1017 10 16.0934 N/A
1:55 pm 13:55 Sunny 75 23.7 41 5.2 30 30 NE 6 9 30.03 1017 10 16.0934 N/A
2:15 pm 14:15 Sunny 76 24.4 42 5.3 29 29 SW 3 6 30.03 1017 10 16.0934 N/A
2:35 pm 14:35 Sunny 74 23.6 40 4.2 28 28 N N/A 30.03 1017 10 16.0934 N/A
2:55 pm 14:55 Sunny 77 25 38 3.6 25 25 ENE 6 9 30.03 1017 10 16.0934 N/A
3:15 pm 15:15 Sunny 77 25.1 42 5.8 29 29 ESE 9 15 30 1016 10 16.0934 N/A
3:35 pm 15:35 Sunny 77 24.9 41 4.8 27 27 N N/A 30 1016 10 16.0934 N/A
3:55 pm 15:55 Sunny 77 25.1 35 1.6 22 22 N N/A 30 1016 10 16.0934 N/A
4:15 pm 16:15 Sunny 77 25.1 40 4.7 27 27 E 8 13 30 1016 10 16.0934 N/A
4:35 pm 16:35 Sunny 77 25.1 35 1.7 22 22 NE 3 6 30 1016 10 16.0934 N/A
4:55 pm 16:55 Sunny 77 25.1 32 0.1 19 19 E 6 9 29.97 1015 10 16.0934 N/A
5:15 pm 17:15 Sunny 77 25.1 35 1.7 22 22 NE 5 7 29.97 1015 10 16.0934 N/A
5:35 pm 17:35 Sunny 77 25.1 34 1.3 21 21 N N/A 29.97 1015 10 16.0934 N/A
5:55 pm 17:55 Sunny 77 25.1 35 1.7 22 22 E 6 9 29.97 1015 10 16.0934 N/A
6:15 pm 18:15 Sunny 77 25.1 33 0.5 20 20 N N/A 29.97 1015 10 16.0934 N/A
6:35 pm 18:35 Sunny 77 25.1 36 2.4 23 23 N N/A 29.97 1015 10 16.0934 N/A
6:55 pm 18:55 Sunny 77 25.1 35 1.5 21 21 N N/A 29.97 1015 10 16.0934 N/A
7:15 pm 19:15 Partly Cloudy 77 25.1 36 2.3 23 23 NE 3 6 29.97 1015 10 16.0934 N/A
7:35 pm 19:35 Partly Cloudy 77 25.1 39 4.1 26 26 S 3 6 29.97 1015 10 16.0934 N/A
7:55 pm 19:55 Sunny 76 24.6 38 3.6 26 26 N 3 6 29.97 1015 10 16.0934 N/A
8:15 pm 20:15 Sunny 74 23.6 42 5.7 32 32 N N/A 30 1016 10 16.0934 N/A
8:35 pm 20:35 Sunny 73 22.5 40 4.5 31 31 ESE 6 9 30 1016 10 16.0934 N/A
8:55 pm 20:55 Clear 69 20.6 49 9.7 50 50 N N/A 30 1016 10 16.0934 N/A
9:15 pm 21:15 Clear 63 17.2 52 11.1 68 68 N N/A 30 1016 10 16.0934 N/A
9:35 pm 21:35 Clear 61 16 51 10.3 69 69 N N/A 30 1016 10 16.0934 N/A
9:55 pm 21:55 Clear 60 15.7 50 10.1 70 70 N N/A 30 1016 10 16.0934 N/A
10:15 pm 22:15 Clear 60 15.3 50 10 71 71 N N/A 30.03 1017 10 16.0934 N/A
10:35 pm 22:35 Clear 60 15.3 49 9.6 69 69 N N/A 30.06 1018 10 16.0934 N/A
10:55 pm 22:55 Clear 60 15.3 50 9.9 70 70 N N/A 30.06 1018 10 16.0934 N/A
11:15 pm 23:15 Clear 57 13.8 49 9.4 75 75 N N/A 30.06 1018 10 16.0934 N/A
11:35 pm 23:35 Clear 57 13.8 49 9.3 74 74 N N/A 30.06 1018 10 16.0934 N/A
11:55 pm 23:55 Clear 57 13.8 49 9.2 74 74 N N/A 30.06 1018 10 16.0934 N/A

Powered by AerisWeather